Regional Weather Roundup
Issued by NWS Columbia, SC

Home | Current Version | Previous Version | Text Only | Print | Product List | Glossary On
Versions: 1 2 3 4 5 6 7 8 9 10 11 12 13 14 15 16 17 18 19 20 21 22 23 24 25 26 27
000
ASUS42 KCAE 291610
RWRCAE
REGIONAL WEATHER ROUNDUP
NATIONAL WEATHER SERVICE COLUMBIA SC
1200 PM EDT WED MAR 29 2017

NOTE: "FAIR" INDICATES FEW OR NO CLOUDS BELOW 12,000 FEET WITH NO
SIGNIFICANT WEATHER AND/OR OBSTRUCTIONS TO VISIBILITY.

NOT ALL STATIONS ARE QUALITY CONTROLLED BY THE NATIONAL
WEATHER SERVICE. USE DATA WITH CAUTION...ESPECIALLY
DEWPOINT OBSERVATIONS.

SCZ001>056-GAZ040-063>065-077-291700-
...UPSTATE SOUTH CAROLINA...

CITY           SKY/WX    TMP DP  RH WIND       PRES   REMARKS
ANDERSON       SUNNY     73  50  44 VRB3      30.08F
LIBERTY        SUNNY     72  51  48 E6        30.08F
SPARTANBURG    SUNNY     72  48  43 S3        30.08F
CLEMSON        SUNNY     73  51  46 E6        30.09F
GREENVILLE     SUNNY     73  50  44 VRB5      30.09F
GREENWOOD      SUNNY     72  50  45 CALM      30.09F
GREER          SUNNY     72  50  45 VRB7      30.07F
ROCK HILL      MOSUNNY   72  51  47 VRB6      30.09F
CHESTER        SUNNY     72  48  43 SE5       30.10S
LAURENS        SUNNY     72  52  49 SE9       30.08F


...CENTRAL SOUTH CAROLINA...

CITY           SKY/WX    TMP DP  RH WIND       PRES   REMARKS
COLUMBIA APT   MOSUNNY   76  52  43 VRB6      30.06S
COLUMBIA OWENS SUNNY     76  50  40 VRB3      30.07S
MCENTIRE ANGB  MOSUNNY   75  53  45 CALM      30.07R
ORANGEBURG     SUNNY     76  52  43 E5        30.06S
SUMTER SHAW    SUNNY     76  53  45 N6        30.04S
NEWBERRY       SUNNY     72  52  49 E5        30.10F
AIKEN          FAIR      73  52  46 N6        30.10S
BARNWELL       FAIR      77  54  44 E6        30.05F
MANNING        FAIR      75  52  43 CALM      30.05S
CAMDEN         FAIR      73  54  49 NE7       30.07F
LANCASTER      SUNNY     72  54  53 E10       30.08F
WINNSBORO      SUNNY     72  52  49 E7        30.08S


...EASTERN AND COASTAL SOUTH CAROLINA...

CITY           SKY/WX    TMP DP  RH WIND       PRES   REMARKS
MYRTLE BEACH   SUNNY     75  55  50 SE10      30.05R
N MYRTLE BCH   SUNNY     74  57  55 SE8       30.03S
CONWAY         FAIR      75  54  46 E3        30.04S
MARION         FAIR      72  55  56 CALM      30.06R
HARTSVILLE     FAIR      72  54  53 NE8       30.07S
FLORENCE       SUNNY     74  57  55 VRB6      30.06R
DARLINGTON     SUNNY     74  57  55 NE8       30.07S
CHARLESTON APT MOSUNNY   78  53  41 VRB3      30.03S
MOUNT PLEASANT FAIR      79  57  47 N5        30.04S
WALTERBORO     SUNNY     77  52  41 CALM      30.05F
BEAUFORT       SUNNY     77  58  51 E6        30.04S


...EASTERN GEORGIA...

CITY           SKY/WX    TMP DP  RH WIND       PRES   REMARKS
AUGUSTA BUSH F SUNNY     80  52  37 MISG      30.05S
AUGUSTA DANIEL SUNNY     76  48  37 E6        30.07S
THOMSON        SUNNY     75  50  42 E6        30.12S
WASHINGTON     FAIR      75  54  46 E6        30.08S
CLAXTON        FAIR      78  59  52 CALM      30.05S
SYLVANIA       SUNNY    N/A N/A N/A SE3       30.06S
STATESBORO     SUNNY     78  56  46 SE5       30.05S
SAVANNAH       PTSUNNY   80  55  42 VRB3      30.04S


...SOUTHERN NORTH CAROLINA...

CITY           SKY/WX    TMP DP  RH WIND       PRES   REMARKS
CHARLOTTE      MOSUNNY   72  50  45 E8        30.09F
MONROE         MOSUNNY   70  53  54 NE10      30.08S
WADESBORO      SUNNY     71  54  55 NE5       30.08F
ROCKINGHAM     PTSUNNY   73  56  54 E7G20     30.08S
RUTHERFORDTON  SUNNY     69  49  48 S6        30.10F
ASHEVILLE      SUNNY     66  47  50 S7        30.11F

$$




USA.gov is the U.S. government's official web portal to all federal, state and local government web resources and services.